When you browse on this site, cookies collect data to enhance your experience and personalize the content and advertising you see.
Visit our Privacy Policy to learn more. By continuing to use the site, you agree to this use of cookies and data.
  • In United Kingdom
  • List of Countries
  • For 7 days
  • Water Temperature
  • Satellite Maps
  • Weather Map
  • Weather Widgets
  • user-avatar
    Login

    Hourly Weather Mayenne

    Today, 21 February, Thursday

    Time Temperature Precipitation Wind Pressure Humidity
    00:00 +6°C° 0 mm 1 mps 757 mmHg 94%
    01:00 +6°C° 0 mm 1 mps 757 mmHg 95%
    02:00 +5°C° 0 mm 1 mps 758 mmHg 95%
    03:00 +5°C° 0 mm 1 mps 758 mmHg 96%
    04:00 +5°C° 0 mm 1 mps 758 mmHg 96%
    05:00 +5°C° 0 mm 1 mps 758 mmHg 96%
    06:00 +5°C° 0 mm 1 mps 758 mmHg 96%
    07:00 +6°C° 0 mm 1 mps 758 mmHg 94%
    08:00 +7°C° 0 mm 1 mps 759 mmHg 92%
    09:00 +8°C° 0 mm 1 mps 759 mmHg 90%
    10:00 +8°C° 0 mm 2 mps 759 mmHg 82%
    11:00 +10°C° 0 mm 2 mps 759 mmHg 75%
    12:00 +13°C° 0 mm 2 mps 759 mmHg 68%
    13:00 +13°C° 0 mm 2 mps 759 mmHg 65%
    14:00 +14°C° 0 mm 2 mps 759 mmHg 62%
    15:00 +14°C° 0 mm 2 mps 759 mmHg 60%
    16:00 +12°C° 0 mm 2 mps 759 mmHg 67%
    17:00 +11°C° 0 mm 1 mps 760 mmHg 74%
    18:00 +9°C° 0 mm 1 mps 760 mmHg 81%
    19:00 +8°C° 0 mm 1 mps 760 mmHg 82%
    20:00 +8°C° 0 mm 1 mps 761 mmHg 84%
    21:00 +8°C° 0 mm 1 mps 761 mmHg 85%
    22:00 +7°C° 0 mm 2 mps 761 mmHg 86%
    23:00 +7°C° 0 mm 2 mps 761 mmHg 88%

    Tomorrow, 22 February, Friday

    Time Temperature Precipitation Wind Pressure Humidity
    00:00 +6°C° 0 mm 2 mps 762 mmHg 89%
    01:00 +6°C° 0 mm 2 mps 762 mmHg 90%
    02:00 +6°C° 0 mm 2 mps 762 mmHg 91%
    03:00 +6°C° 0 mm 2 mps 762 mmHg 91%
    04:00 +6°C° 0 mm 2 mps 762 mmHg 91%
    05:00 +6°C° 0 mm 2 mps 762 mmHg 92%
    06:00 +5°C° 0 mm 2 mps 762 mmHg 92%
    07:00 +6°C° 0 mm 2 mps 762 mmHg 89%
    08:00 +8°C° 0 mm 3 mps 763 mmHg 86%
    09:00 +9°C° 0 mm 3 mps 763 mmHg 83%
    10:00 +10°C° 0 mm 3 mps 763 mmHg 78%
    11:00 +12°C° 0 mm 3 mps 763 mmHg 74%
    12:00 +14°C° 0 mm 3 mps 763 mmHg 69%
    13:00 +14°C° 0 mm 3 mps 763 mmHg 69%
    14:00 +16°C° 0 mm 3 mps 763 mmHg 68%
    15:00 +16°C° 0 mm 3 mps 762 mmHg 68%
    16:00 +14°C° 0 mm 3 mps 762 mmHg 74%
    17:00 +12°C° 0 mm 3 mps 762 mmHg 81%
    18:00 +10°C° 0 mm 3 mps 762 mmHg 88%
    19:00 +9°C° 0 mm 3 mps 762 mmHg 87%
    20:00 +8°C° 0 mm 3 mps 762 mmHg 86%
    21:00 +8°C° 0 mm 3 mps 762 mmHg 85%
    22:00 +7°C° 0 mm 4 mps 762 mmHg 86%
    23:00 +7°C° 0 mm 4 mps 762 mmHg 86%

    Day after tomorrow, 23 February, Saturday

    Time Temperature Precipitation Wind Pressure Humidity
    00:00 +7°C° 0 mm 4 mps 762 mmHg 87%
    01:00 +7°C° 0 mm 4 mps 762 mmHg 88%
    02:00 +7°C° 0 mm 4 mps 762 mmHg 90%
    03:00 +7°C° 0 mm 4 mps 761 mmHg 91%
    04:00 +7°C° 0 mm 4 mps 761 mmHg 92%
    05:00 +7°C° 0 mm 3 mps 761 mmHg 92%
    06:00 +7°C° 0 mm 3 mps 761 mmHg 93%
    07:00 +8°C° 0 mm 3 mps 762 mmHg 90%
    08:00 +7°C° 0 mm 4 mps 762 mmHg 87%
    09:00 +8°C° 0 mm 4 mps 762 mmHg 83%
    10:00 +11°C° 0 mm 4 mps 762 mmHg 79%
    11:00 +12°C° 0 mm 4 mps 762 mmHg 75%
    12:00 +14°C° 0 mm 3 mps 762 mmHg 70%
    13:00 +16°C° 0 mm 3 mps 762 mmHg 68%
    14:00 +16°C° 0 mm 3 mps 761 mmHg 66%
    15:00 +17°C° 0 mm 2 mps 761 mmHg 64%
    16:00 +15°C° 0 mm 2 mps 761 mmHg 71%
    17:00 +13°C° 0 mm 2 mps 761 mmHg 77%
    18:00 +11°C° 0 mm 1 mps 761 mmHg 84%
    19:00 +9°C° 0 mm 2 mps 762 mmHg 85%
    20:00 +9°C° 0 mm 2 mps 762 mmHg 86%
    21:00 +8°C° 0 mm 2 mps 762 mmHg 88%
    22:00 +7°C° 0 mm 2 mps 762 mmHg 88%
    23:00 +7°C° 0 mm 2 mps 762 mmHg 87%

    24 February, Sunday

    Time Temperature Precipitation Wind Pressure Humidity
    00:00 +6°C° 0 mm 2 mps 762 mmHg 87%
    01:00 +6°C° 0 mm 2 mps 762 mmHg 87%
    02:00 +6°C° 0 mm 2 mps 762 mmHg 88%
    03:00 +7°C° 0 mm 1 mps 762 mmHg 88%
    04:00 +5°C° 0 mm 2 mps 762 mmHg 88%
    05:00 +5°C° 0 mm 2 mps 762 mmHg 88%
    06:00 +5°C° 0 mm 2 mps 762 mmHg 88%
    07:00 +6°C° 0 mm 2 mps 762 mmHg 85%
    08:00 +7°C° 0 mm 2 mps 763 mmHg 81%
    09:00 +8°C° 0 mm 2 mps 763 mmHg 77%
    10:00 +10°C° 0 mm 2 mps 763 mmHg 70%
    11:00 +13°C° 0 mm 2 mps 763 mmHg 64%
    12:00 +14°C° 0 mm 2 mps 763 mmHg 57%
    13:00 +15°C° 0 mm 2 mps 763 mmHg 57%
    14:00 +15°C° 0 mm 2 mps 763 mmHg 57%
    15:00 +16°C° 0 mm 2 mps 763 mmHg 57%
    16:00 +14°C° 0 mm 2 mps 763 mmHg 65%
    17:00 +12°C° 0 mm 2 mps 763 mmHg 72%
    18:00 +10°C° 0 mm 1 mps 763 mmHg 79%
    19:00 +9°C° 0 mm 1 mps 763 mmHg 81%
    20:00 +9°C° 0 mm 1 mps 763 mmHg 82%
    21:00 +8°C° 0 mm 1 mps 764 mmHg 84%
    22:00 +8°C° 0 mm 1 mps 764 mmHg 83%
    23:00 +7°C° 0 mm 1 mps 764 mmHg 82%

    25 February, Monday

    Time Temperature Precipitation Wind Pressure Humidity
    00:00 +7°C° 0 mm 1 mps 764 mmHg 81%
    01:00 +6°C° 0 mm 2 mps 764 mmHg 80%
    02:00 +6°C° 0 mm 2 mps 764 mmHg 80%
    03:00 +5°C° 0 mm 2 mps 764 mmHg 79%
    04:00 +5°C° 0 mm 2 mps 764 mmHg 80%
    05:00 +5°C° 0 mm 2 mps 764 mmHg 81%
    06:00 +5°C° 0 mm 2 mps 764 mmHg 82%
    07:00 +6°C° 0 mm 2 mps 764 mmHg 80%
    08:00 +7°C° 0 mm 2 mps 764 mmHg 78%
    09:00 +8°C° 0 mm 2 mps 764 mmHg 76%
    10:00 +10°C° 0 mm 2 mps 764 mmHg 72%
    11:00 +13°C° 0 mm 2 mps 764 mmHg 67%
    12:00 +15°C° 0 mm 2 mps 764 mmHg 63%
    13:00 +16°C° 0 mm 2 mps 763 mmHg 63%
    14:00 +16°C° 0 mm 2 mps 763 mmHg 62%
    15:00 +16°C° 0 mm 2 mps 763 mmHg 62%
    16:00 +15°C° 0 mm 2 mps 763 mmHg 67%
    17:00 +13°C° 0 mm 2 mps 763 mmHg 73%
    18:00 +10°C° 0 mm 2 mps 762 mmHg 79%
    19:00 +9°C° 0 mm 3 mps 762 mmHg 79%
    20:00 +8°C° 0 mm 3 mps 762 mmHg 79%
    21:00 +7°C° 0 mm 3 mps 762 mmHg 79%
    22:00 +7°C° 0 mm 3 mps 762 mmHg 79%
    23:00 +7°C° 0 mm 3 mps 762 mmHg 79%

    26 February, Tuesday

    Time Temperature Precipitation Wind Pressure Humidity
    00:00 +5°C° 0 mm 3 mps 761 mmHg 79%
    01:00 +5°C° 0 mm 3 mps 761 mmHg 81%
    02:00 +5°C° 0 mm 3 mps 761 mmHg 83%
    03:00 +4°C° 0 mm 3 mps 761 mmHg 84%
    04:00 +4°C° 0 mm 3 mps 760 mmHg 85%
    05:00 +3°C° 0 mm 3 mps 760 mmHg 86%
    06:00 +3°C° 0 mm 3 mps 760 mmHg 87%
    07:00 +4°C° 0 mm 3 mps 760 mmHg 83%
    08:00 +5°C° 0 mm 4 mps 760 mmHg 79%
    09:00 +7°C° 0 mm 4 mps 759 mmHg 74%
    10:00 +8°C° 0 mm 4 mps 759 mmHg 73%
    11:00 +11°C° 0 mm 4 mps 759 mmHg 71%
    12:00 +12°C° 0 mm 4 mps 759 mmHg 69%
    13:00 +13°C° 0 mm 4 mps 758 mmHg 71%
    14:00 +14°C° 0 mm 4 mps 758 mmHg 72%
    15:00 +15°C° 0 mm 4 mps 757 mmHg 74%
    16:00 +14°C° 0 mm 4 mps 757 mmHg 79%
    17:00 +12°C° 0 mm 3 mps 757 mmHg 85%
    18:00 +11°C° 0 mm 3 mps 757 mmHg 90%
    19:00 +11°C° 0 mm 3 mps 757 mmHg 90%
    20:00 +10°C° 0 mm 3 mps 757 mmHg 90%
    21:00 +9°C° 0 mm 3 mps 757 mmHg 91%
    22:00 +9°C° 0 mm 3 mps 756 mmHg 91%
    23:00 +9°C° 0 mm 3 mps 756 mmHg 91%
    Show more